Flag for U.S.A. Weather past 2 weeks in Columbia, South Carolina, U.S.A.

Now
37 °F

Clear.


Feels Like: 37 °F
Forecast: 28 / 61 °F
Wind: No wind

Location: Columbia Owens Downtown Airport

Current Time: Mar 6, 2015 at 11:27:27 PM

Latest Report: Mar 6, 2015 at 10:53 PM


Visibility: 10 mi

Pressure: 30.45 "Hg

Humidity: 79%

Dew point: 31 °F

Location of ColumbiaLocation

Historic Weather in Columbia — Graph

°F

Columbia temperature yesterday

Maximum temperature yesterday: 80 °F (at 1:53 PM)
Minimum temperature yesterday: 42 °F (at 10:53 PM)
Average temperature yesterday: 62 °F

Past Weeks' High & Low Weather Summary

 TemperatureHumidityPressure
High81 °F (Mar 4, 1:53 PM)97% (Feb 22, 10:53 PM)30.69 "Hg (Feb 22, 10:53 PM)
Low16 °F (Feb 20, 4:53 AM)20% (Feb 20, 3:53 PM)29.63 "Hg (Feb 26, 1:53 AM)
Average46 °F72%30.23 "Hg
* Reported Feb 19 9:53 PM — Mar 6 9:53 PM, Columbia, Weather by CustomWeather, © 2015

Note: Actual official high and low records may vary slightly from our data, if they occured in-between our weather recording intervals... More about our weather records

Advertising

Columbia weather history for previous 24 hours

 ConditionsComfort  
Time TempWeatherWind HumidityBarometerVisibility
9:53 PM
Fri, Mar 6
39 °FClear.No wind73%30.45 "Hg10 mi
8:53 PM40 °FClear.No wind70%30.43 "Hg10 mi
7:53 PM41 °FClear.No wind67%30.42 "Hg10 mi
6:53 PM45 °FClear.No wind49%30.41 "Hg10 mi
5:53 PM49 °FSunny.3 mph39%30.40 "Hg10 mi
4:53 PM50 °FSunny.6 mph38%30.39 "Hg10 mi
3:53 PM50 °FSunny.5 mph39%30.39 "Hg10 mi
2:53 PM47 °FSunny.5 mph42%30.40 "Hg10 mi
1:53 PM45 °FSunny.6 mph48%30.41 "Hg10 mi
12:53 PM42 °FScattered clouds.8 mph53%30.45 "Hg10 mi
11:53 AM39 °FPartly sunny.5 mph55%30.47 "Hg10 mi
10:53 AM39 °FOvercast.5 mph60%30.48 "Hg10 mi
9:53 AM38 °FOvercast.8 mph60%30.48 "Hg10 mi
8:53 AM37 °FOvercast.5 mph60%30.46 "Hg10 mi
7:53 AM37 °FOvercast.7 mph65%30.44 "Hg10 mi
6:53 AM38 °FOvercast.6 mph70%30.41 "Hg10 mi
5:53 AM38 °FMostly cloudy.7 mph70%30.39 "Hg10 mi
4:53 AM39 °FMostly cloudy.6 mph70%30.38 "Hg10 mi
3:53 AM39 °FMostly cloudy.5 mph70%30.35 "Hg10 mi
2:53 AM39 °FMostly cloudy.5 mph73%30.34 "Hg10 mi
1:53 AM40 °FOvercast.8 mph68%30.33 "Hg10 mi
12:53 AM40 °FOvercast.6 mph70%30.31 "Hg10 mi
11:53 PM
Thu, Mar 5
42 °FMostly cloudy.8 mph76%30.30 "Hg10 mi
Weather by CustomWeather, © 2015

See weather overviewHow to use our weather pages